[[[{"header":{"parameterUnit":"kt","parameterCategory":2,"dx":1,"dy":1,"la1":30.253999710083008,"la2":30.299108505249023,"lo1":-89.0895004272461,"lo2":-89.04439544677734,"nx":28,"ny":28,"refTime":"2022-10-09T21:00:00:Z","depth":0,"parameterNumber":1,"parameterNumberName":"U-component_of_WINDS"},"data":[-3.6442,-3.6585,-3.6576,-3.6736,-3.6755,-3.6863,-3.6899,-3.6945,-3.6979,-3.7107,-3.718,-3.7186,-3.7218,-3.7303,-3.7382,-3.7384,-3.742,-3.7476,-3.7469,-3.722,-3.7186,-3.7153,-3.7119,-3.7483,-3.7483,-3.7729,-3.7732,-3.7734,-3.6263,-3.6283,-3.6364,-3.6437,-3.6507,-3.6447,-3.65,-3.6563,-3.6662,-3.6704,-3.6775,-3.6887,-3.6975,-3.6988,-3.7072,-3.714,-3.7118,-3.7163,-3.7161,-3.7167,-3.69,-3.6864,-3.718,-3.718,-3.718,-3.718,-3.718,-3.718,-3.5934,-3.6019,-3.6058,-3.6146,-3.618,-3.6229,-3.6309,-3.6314,-3.6394,-3.6479,-3.6453,-3.6564,-3.6606,-3.6702,-3.6732,-3.682,-3.6768,-3.6816,-3.683,-3.6843,-3.6861,-3.6513,-3.6833,-3.6832,-3.6831,-3.683,-3.683,0,-3.5692,-3.5679,-3.5755,-3.583,-3.5893,-3.595,-3.6001,-3.605,-3.6019,-3.6086,-3.6183,-3.6238,-3.6345,-3.6437,-3.6513,-3.6534,-3.6483,-3.6474,-3.6508,-3.6526,-3.6532,-3.6535,-3.6103,-3.6466,-3.6463,-3.6461,-3.6459,-3.6458,-3.5363,-3.5462,-3.5498,-3.5553,-3.5578,-3.5667,-3.5719,-3.5684,-3.5741,-3.5798,-3.5876,-3.5965,-3.6036,-3.6193,-3.6199,-3.628,-3.6257,-3.6397,-3.6269,-3.628,-3.6264,-3.6261,-3.6272,-3.6424,-3.6429,-3.6432,-3.6435,0,-3.518,-3.5164,-3.5315,-3.534,-3.5349,-3.5455,-3.5477,-3.5561,-3.5556,-3.5671,-3.5696,-3.569,-3.5786,-3.5769,-3.5875,-3.5864,-3.6043,-3.6015,-3.6029,-3.6024,-3.6151,-3.6142,-3.6558,-3.6612,-3.623,-3.6233,-3.6236,0,-3.4896,-3.5027,-3.4996,-3.5085,-3.5229,-3.519,-3.5335,-3.5346,-3.5379,-3.5469,-3.5404,-3.5491,-3.5455,-3.5539,-3.5522,-3.5665,-3.5684,-3.5685,-3.568,-3.5694,-3.5695,-3.5728,-3.5712,-3.5659,-3.5657,-3.5655,-3.5653,0,-3.4614,-3.475,-3.4892,-3.4921,-3.4961,-3.5029,-3.5049,-3.5086,-3.5137,-3.52,-3.5233,-3.5309,-3.5352,-3.5413,-3.5392,-3.5306,-3.5564,-3.5442,-3.5566,-3.5567,-3.5628,-3.5625,-3.5994,-3.5651,-3.565,-3.5649,-3.5649,0,-3.4384,-3.4446,-3.4654,-3.4686,-3.4723,-3.4817,-3.4889,-3.4964,-3.5008,-3.5003,-3.5053,-3.5009,-3.5128,-3.5009,-3.5175,-3.507,-3.5117,-3.5128,-3.5136,-3.515,-3.5018,-3.5234,-3.5583,-3.5621,-3.5158,-3.5154,-3.515,0,-3.4068,-3.4272,-3.4239,-3.4438,-3.453,-3.4451,-3.4554,-3.4594,-3.4596,-3.4675,-3.4676,-3.4768,-3.4674,-3.4701,-3.4785,-3.4792,-3.4928,-3.4772,-3.4893,-3.4898,-3.4888,-3.5207,-3.5266,-3.5507,-3.5097,-3.5103,-3.5107,0,-3.3821,-3.3867,-3.3905,-3.3936,-3.3981,-3.4058,-3.4175,-3.4256,-3.4311,-3.4362,-3.4462,-3.4587,-3.4523,-3.4567,-3.4539,-3.4628,-3.4834,-3.4548,-3.4548,-3.4604,-3.5067,-3.5123,-3.5164,-3.4796,-3.4803,-3.4808,-3.5065,0,-3.3484,-3.3583,-3.3682,-3.3752,-3.3807,-3.3929,-3.3909,-3.397,-3.3937,-3.3936,-3.408,-3.4109,-3.4193,-3.4232,-3.4201,-3.4407,-3.4371,-3.4301,-3.4187,-3.4395,-3.448,-3.4514,-3.4063,-3.4059,-3.4056,-3.4054,0,0,-3.3189,-3.3329,-3.3289,-3.3401,-3.3446,-3.3362,-3.3495,-3.3528,-3.36,-3.3633,-3.3568,-3.375,-3.3777,-3.3956,-3.4018,-3.4051,-3.4088,-3.4015,-3.4295,-3.4322,-3.4347,-3.4438,-3.4474,-3.4049,-3.4048,-3.4047,-3.4046,0,-3.3062,-3.3086,-3.3216,-3.3249,-3.3296,-3.3287,-3.3318,-3.3351,-3.3356,-3.3496,-3.3428,-3.3512,-3.3657,-3.3696,-3.3734,-3.3992,-3.3938,-3.4018,-3.4165,-3.4266,-3.4297,-3.4324,-3.442,-3.4454,-3.4038,-3.4039,-3.4039,0,-3.2819,-3.2841,-3.2901,-3.2996,-3.3026,-3.3122,-3.2996,-3.3102,-3.3174,-3.3079,-3.3219,-3.3233,-3.3281,-3.3451,-3.3526,-3.347,-3.3803,-3.3692,-3.371,-3.372,-3.3817,-3.3855,-3.3888,-3.3453,-3.3451,-3.3449,0,0,-3.2712,-3.2802,-3.2816,-3.2967,-3.2991,-3.298,-3.3028,-3.3,-3.3044,-3.3062,-3.3079,-3.3125,-3.3209,-3.3266,-3.3344,-3.3532,-3.3541,-3.3621,-3.3649,-3.3671,-3.3693,-3.3797,-3.3833,-3.3442,-3.3442,-3.3441,0,0,-3.2662,-3.2683,-3.2641,-3.2813,-3.2857,-3.2882,-3.2975,-3.2926,-3.2993,-3.2978,-3.2937,-3.2947,-3.3105,-3.3121,-3.3024,-3.3304,-3.3191,-3.3213,-3.3288,-3.3323,-3.335,-3.3345,-3.2902,0,0,0,0,0,-3.2522,-3.268,-3.2642,-3.2668,-3.2788,-3.2902,-3.2917,-3.2886,-3.2807,-3.2882,-3.2888,-3.2825,-3.3061,-3.2974,-3.3001,-3.3111,-3.3346,-3.3363,-3.3379,-3.352,-3.3556,-3.3587,0,0,0,0,0,0,-3.2532,-3.2564,-3.2637,-3.2669,-3.2696,-3.2896,-3.2755,-3.2751,-3.2798,-3.2784,-3.2826,-3.2826,-3.2803,-3.2958,-3.2983,-3.3088,-3.2893,-3.3353,-3.3367,-3.338,-3.3532,-3.3562,-3.3587,0,0,0,0,0,-3.254,-3.2565,-3.2765,-3.2667,-3.269,-3.2686,-3.2749,-3.2744,-3.2781,-3.279,-3.2788,-3.2753,-3.2807,-3.2826,-3.2972,-3.3077,-3.2876,-3.2885,-3.3362,-3.3374,-3.3384,-3.3547,0,0,0,0,0,0,-3.2545,-3.2562,-3.2769,-3.2775,-3.2604,-3.2674,-3.2684,-3.2739,-3.2782,-3.2783,-3.2714,-3.2703,-3.2811,-3.2825,-3.284,-3.3076,-3.2861,-3.2871,-3.2877,-3.3371,-3.338,-3.3388,0,0,0,0,0,0,-3.2548,-3.2568,-3.2772,-3.2696,-3.2692,-3.2664,-3.2673,-3.2792,-3.2784,-3.2704,-3.2696,-3.2709,-3.2789,-3.2826,-3.2837,-3.3025,-3.285,-3.286,-3.2866,-3.287,-3.3378,-3.3385,0,0,0,0,0,0,-3.2556,-3.2573,-3.2694,-3.2691,-3.2688,-3.2753,-3.2769,-3.2895,-3.2717,-3.2704,-3.27,-3.2692,-3.2792,-3.2802,-3.2835,-3.302,-3.3024,-3.2851,-3.2857,-3.2861,-3.2864,0,0,0,0,0,0,0,-3.2562,-3.2457,-3.2734,-3.2688,-3.2685,-3.2831,-3.2832,-3.2834,-3.2715,-3.2708,-3.2702,-3.2695,-3.2798,-3.2808,-3.2818,-3.3015,0,0,-3.285,-3.2854,0,0,0,0,0,0,0,0,-3.2449,-3.2455,-3.2734,-3.2735,-3.2736,-3.2831,-3.2832,-3.2833,-3.2714,-3.2708,-3.2703,-3.2698,-3.2801,-3.2809,-3.2817,0,0,0,0,0,0,0,0,0,0,0,0,0,0,0,-3.2734,-3.2735,0,-3.2831,-3.2832,-3.2833,-3.2713,-3.2709,-3.2704,-3.27,-3.2803,-3.281,-3.2817,0,0,0,0,0,0,0,0,0,0,0,0,0,0,0,0,0,0,0,0,0,0,0,0,0,0,0,0,0,0,0,0,0,0,0,0,0,0,0,0,0,0,0,0,0,0,0,0,0,0,0,0,0,0,0,0,0,0,0,0,0,0,0,0,0,0,0,0,0]}],[{"header":{"parameterUnit":"kt","parameterCategory":2,"dx":1,"dy":1,"la1":30.253999710083008,"la2":30.299108505249023,"lo1":-89.0895004272461,"lo2":-89.04439544677734,"nx":28,"ny":28,"refTime":"2022-10-09T21:00:00:Z","depth":0,"parameterNumber":2,"parameterNumberName":"V-component_of_WINDS"},"data":[-7.2414,-7.2581,-7.2586,-7.2777,-7.2813,-7.2943,-7.2991,-7.3052,-7.3101,-7.3254,-7.3342,-7.336,-7.3407,-7.351,-7.3604,-7.3608,-7.3648,-7.3705,-7.3701,-7.3446,-7.3411,-7.3378,-7.334,-7.3714,-7.3714,-7.3966,-7.3968,-7.397,-7.2229,-7.2268,-7.237,-7.2472,-7.2559,-7.2508,-7.2583,-7.2658,-7.2775,-7.2836,-7.2922,-7.3056,-7.316,-7.3188,-7.3288,-7.3362,-7.3342,-7.3389,-7.3384,-7.3392,-7.312,-7.308,-7.3404,-7.3404,-7.3404,-7.3404,-7.3404,-7.3404,-7.1893,-7.1993,-7.2057,-7.2168,-7.222,-7.2287,-7.2381,-7.2402,-7.25,-7.2608,-7.259,-7.272,-7.2779,-7.2899,-7.2938,-7.3038,-7.2986,-7.3037,-7.305,-7.3064,-7.308,-7.2719,-7.3054,-7.3053,-7.3053,-7.3052,-7.3051,0,-7.1648,-7.1646,-7.1744,-7.1844,-7.1924,-7.2,-7.207,-7.2128,-7.2118,-7.2199,-7.2315,-7.2382,-7.2512,-7.262,-7.2712,-7.2742,-7.2694,-7.2688,-7.2723,-7.2736,-7.2735,-7.2739,-7.2296,-7.2678,-7.2675,-7.2673,-7.2671,-7.267,-7.1311,-7.1426,-7.1494,-7.1562,-7.1601,-7.171,-7.1776,-7.1758,-7.1828,-7.1909,-7.1995,-7.2103,-7.2189,-7.2371,-7.2389,-7.2486,-7.2463,-7.2609,-7.2477,-7.2484,-7.2467,-7.2461,-7.2473,-7.2636,-7.264,-7.2643,-7.2646,0,-7.112,-7.1126,-7.1304,-7.1359,-7.1376,-7.1496,-7.1541,-7.1637,-7.1645,-7.1779,-7.1809,-7.1821,-7.1933,-7.1928,-7.2054,-7.2048,-7.2243,-7.2217,-7.2223,-7.2218,-7.235,-7.2338,-7.2775,-7.2831,-7.2442,-7.2446,-7.2449,0,-7.0835,-7.0985,-7.0984,-7.1087,-7.1253,-7.1232,-7.1396,-7.1419,-7.147,-7.1575,-7.1519,-7.1618,-7.1596,-7.1693,-7.1684,-7.1842,-7.1864,-7.1869,-7.1865,-7.1876,-7.1875,-7.1911,-7.1894,-7.1849,-7.1847,-7.1845,-7.1843,0,-7.0537,-7.0712,-7.0879,-7.0919,-7.0991,-7.1069,-7.1102,-7.1158,-7.1221,-7.1301,-7.1342,-7.1436,-7.1487,-7.156,-7.1548,-7.1458,-7.174,-7.1614,-7.1745,-7.1745,-7.1808,-7.1804,-7.2192,-7.1841,-7.184,-7.1839,-7.1839,0,-7.0307,-7.0392,-7.0634,-7.0692,-7.0738,-7.0847,-7.094,-7.1032,-7.1095,-7.1097,-7.1159,-7.1121,-7.1258,-7.1134,-7.1322,-7.1209,-7.1263,-7.1279,-7.1288,-7.1301,-7.1162,-7.1383,-7.1752,-7.1791,-7.1311,-7.1307,-7.1303,0,-6.9966,-7.021,-7.0194,-7.0423,-7.0535,-7.0467,-7.0587,-7.0644,-7.0657,-7.0751,-7.0763,-7.087,-7.0777,-7.0809,-7.0903,-7.0919,-7.1065,-7.0899,-7.1034,-7.1039,-7.1022,-7.136,-7.1418,-7.1672,-7.1247,-7.1253,-7.1257,0,-6.9702,-6.9789,-6.9831,-6.9876,-6.995,-7.0042,-7.018,-7.0283,-7.0347,-7.0416,-7.053,-7.068,-7.0615,-7.067,-7.0647,-7.0745,-7.0965,-7.0662,-7.0663,-7.0718,-7.1217,-7.1271,-7.1314,-7.0929,-7.0935,-7.0941,-7.1212,0,-6.9356,-6.9478,-6.9591,-6.9691,-6.9762,-6.9903,-6.99,-6.9974,-6.9947,-6.9957,-7.0123,-7.0167,-7.0268,-7.0314,-7.0287,-7.0513,-7.0474,-7.0404,-7.0283,-7.0505,-7.0594,-7.063,-7.0151,-7.0147,-7.0144,-7.0141,0,0,-6.9029,-6.9203,-6.918,-6.9314,-6.9372,-6.9299,-6.9451,-6.9498,-6.9595,-6.9636,-6.9569,-6.9786,-6.9824,-7.0026,-7.0095,-7.0135,-7.0175,-7.0097,-7.0399,-7.0428,-7.0454,-7.055,-7.0588,-7.0136,-7.0135,-7.0134,-7.0133,0,-6.8902,-6.8946,-6.9098,-6.9147,-6.9218,-6.9221,-6.9257,-6.9314,-6.9327,-6.949,-6.9425,-6.9523,-6.9696,-6.9745,-6.9793,-7.0073,-7.0017,-7.0103,-7.0257,-7.0368,-7.0401,-7.043,-7.0531,-7.0567,-7.0125,-7.0126,-7.0126,0,-6.8642,-6.8685,-6.8758,-6.8888,-6.8933,-6.9048,-6.8922,-6.9049,-6.9134,-6.9043,-6.9206,-6.9229,-6.9292,-6.9484,-6.9569,-6.951,-6.9874,-6.9757,-6.9776,-6.9785,-6.9893,-6.9932,-6.9967,-6.9505,-6.9503,-6.9501,0,0,-6.8532,-6.8645,-6.8685,-6.886,-6.8893,-6.8899,-6.896,-6.8939,-6.9,-6.9025,-6.9053,-6.9113,-6.9213,-6.9279,-6.9373,-6.9583,-6.9595,-6.9681,-6.971,-6.9734,-6.9757,-6.987,-6.9909,-6.9493,-6.9493,-6.9492,0,0,-6.8479,-6.8533,-6.8496,-6.8699,-6.876,-6.8809,-6.8915,-6.8869,-6.8953,-6.8936,-6.8904,-6.8919,-6.9097,-6.9122,-6.9015,-6.9329,-6.921,-6.9235,-6.9307,-6.9344,-6.9373,-6.9364,-6.8889,0,0,0,0,0,-6.8348,-6.8526,-6.8492,-6.8526,-6.8687,-6.8828,-6.8848,-6.8828,-6.8744,-6.8829,-6.8845,-6.8781,-6.9058,-6.8963,-6.8995,-6.9114,-6.9389,-6.9408,-6.9425,-6.9568,-6.9606,-6.9639,0,0,0,0,0,0,-6.8361,-6.8402,-6.8487,-6.8544,-6.858,-6.8822,-6.8676,-6.8675,-6.8735,-6.8721,-6.878,-6.8783,-6.8767,-6.8945,-6.8974,-6.9088,-6.8879,-6.9397,-6.9412,-6.9426,-6.9581,-6.9613,-6.964,0,0,0,0,0,-6.8371,-6.8404,-6.8669,-6.8541,-6.8572,-6.8588,-6.8669,-6.8667,-6.8713,-6.8738,-6.8739,-6.8692,-6.877,-6.8793,-6.8962,-6.9075,-6.8859,-6.887,-6.9407,-6.9419,-6.943,-6.9597,0,0,0,0,0,0,-6.8379,-6.8403,-6.8675,-6.8683,-6.8472,-6.8574,-6.8589,-6.866,-6.8725,-6.8728,-6.8647,-6.8635,-6.8775,-6.8792,-6.8811,-6.9072,-6.8842,-6.8853,-6.886,-6.9416,-6.9426,-6.9434,0,0,0,0,0,0,-6.8384,-6.8411,-6.8679,-6.8594,-6.8592,-6.8561,-6.8575,-6.8714,-6.8727,-6.863,-6.8622,-6.8641,-6.8747,-6.8793,-6.8806,-6.9024,-6.8829,-6.884,-6.8847,-6.8852,-6.9424,-6.9431,0,0,0,0,0,0,-6.8395,-6.8417,-6.8591,-6.859,-6.8588,-6.8684,-6.8683,-6.8849,-6.8657,-6.8628,-6.8638,-6.863,-6.8749,-6.8762,-6.8804,-6.9017,-6.9022,-6.8829,-6.8837,-6.8842,-6.8845,0,0,0,0,0,0,0,-6.8403,-6.826,-6.8624,-6.8587,-6.8586,-6.8764,-6.8766,-6.8768,-6.8655,-6.8648,-6.864,-6.8634,-6.8768,-6.8779,-6.8791,-6.901,0,0,-6.8828,-6.8834,0,0,0,0,0,0,0,0,-6.825,-6.8258,-6.8624,-6.8626,-6.8628,-6.8764,-6.8766,-6.8768,-6.8654,-6.8648,-6.8642,-6.8636,-6.8771,-6.878,-6.879,0,0,0,0,0,0,0,0,0,0,0,0,0,0,0,-6.8624,-6.8626,0,-6.8764,-6.8766,-6.8767,-6.8653,-6.8648,-6.8643,-6.8639,-6.8774,-6.8781,-6.8789,0,0,0,0,0,0,0,0,0,0,0,0,0,0,0,0,0,0,0,0,0,0,0,0,0,0,0,0,0,0,0,0,0,0,0,0,0,0,0,0,0,0,0,0,0,0,0,0,0,0,0,0,0,0,0,0,0,0,0,0,0,0,0,0,0,0,0,0,0]}]]]